Cheboygan, MI

10:11 AM EDT on May 27, 2017 (GMT -0400)
Cheboygan

Weather History for KSLH - April, 2014

Change the Weather History Date:

Tuesday, April 1, 2014

  Actual Average (KMCD) Record (KMCD)
Temperature  
Mean Temperature 36 °F -  
Max Temperature 46 °F 38 °F 59 °F (1999)
Min Temperature 26 °F 24 °F 14 °F (1975)
Degree Days  
Heating Degree Days 29    
Moisture  
Dew Point 30 °F    
Average Humidity 76    
Maximum Humidity 92    
Minimum Humidity 57    
Precipitation  
Precipitation 0.00 in - - ()
Sea Level Pressure  
Sea Level Pressure 29.73 in    
Wind  
Wind Speed 11 mph (South)    
Max Wind Speed 23 mph    
Max Gust Speed 32 mph    
Visibility 8 miles    
Events Rain , Snow    
Averages and records for this station are not official NWS values.
T = Trace of Precipitation, MM = Missing Value Source: NWS Daily Summary

Daily Weather History Graph

Daily Weather History Graph

Search for Another Location

Airport or City:

Trip Planner

Search our weather history database for the weather conditions in past years. The results will help you decide how hot, cold, wet, or windy it might be!

Date:

Astronomy

Apr. 01, 2014 Rise Set
Actual Time 7:18 AM EDT 8:06 PM EDT
Civil Twilight 6:48 AM EDT 8:36 PM EDT
Nautical Twilight 6:12 AM EDT 9:12 PM EDT
Astronomical Twilight 5:35 AM EDT 9:49 PM EDT
Moon 8:14 AM EDT (4/1) 10:35 PM EDT (4/1)
Length of Visible Light 13h 48m
Length of Day
12h 48m
Waxing Crescent, 4% of the Moon is Illuminated
Apr 1
Waxing Crescent
Apr 7
First Quarter
Apr 15
Full
Apr 22
Last Quarter
Apr 29
New

Hourly Weather History & Observations

Time (EDT) Temp. Windchill Dew Point Humidity Pressure Visibility Wind Dir Wind Speed Gust Speed Precip Events Conditions
12:15 AM 41.4 °F 35.7 °F 28.0 °F 59% 29.88 in 10.0 mi SE 9.2 mph - N/A   Overcast
12:36 AM 41.5 °F 35.4 °F 28.4 °F 60% 29.86 in 10.0 mi SE 10.4 mph - N/A   Overcast
12:56 AM 41.7 °F 37.3 °F 28.2 °F 59% 29.86 in 10.0 mi SSE 6.9 mph 18.4 mph N/A   Overcast
1:15 AM 41.5 °F 35.0 °F 28.4 °F 60% 29.85 in 10.0 mi SE 11.5 mph - N/A   Overcast
1:36 AM 42.8 °F 37.5 °F 28.4 °F 57% 29.85 in 10.0 mi SE 9.2 mph - N/A   Overcast
1:55 AM 42.1 °F 36.1 °F 29.1 °F 60% 29.85 in 10.0 mi SSE 10.4 mph - N/A Rain Light Rain
2:15 AM 41.5 °F 38.6 °F 30.0 °F 64% 29.86 in 10.0 mi South 4.6 mph - N/A Rain Light Rain
2:36 AM 41.0 °F 36.4 °F 30.0 °F 65% 29.85 in 10.0 mi SE 6.9 mph - N/A   Overcast
2:55 AM 41.7 °F 38.8 °F 29.1 °F 61% 29.85 in 10.0 mi SSE 4.6 mph - N/A   Overcast
3:15 AM 41.5 °F - 28.9 °F 61% 29.85 in 10.0 mi Calm Calm - N/A   Overcast
3:36 AM 40.5 °F 35.8 °F 29.5 °F 65% 29.83 in 10.0 mi ESE 6.9 mph - N/A   Overcast
3:55 AM 39.2 °F 33.6 °F 29.7 °F 69% 29.81 in 10.0 mi ESE 8.1 mph - N/A   Overcast
4:16 AM 40.1 °F 34.1 °F 29.8 °F 67% 29.80 in 10.0 mi ESE 9.2 mph - N/A   Overcast
4:36 AM 40.1 °F 33.6 °F 31.6 °F 72% 29.78 in 4.0 mi ESE 10.4 mph - N/A   Unknown
4:55 AM 38.5 °F 30.3 °F 32.0 °F 78% 29.76 in 10.0 mi ESE 13.8 mph 19.6 mph N/A Rain Light Rain
5:16 AM 38.7 °F 32.4 °F 31.5 °F 75% 29.75 in 10.0 mi SE 9.2 mph - N/A   Overcast
5:35 AM 38.5 °F 32.1 °F 31.5 °F 76% 29.74 in 10.0 mi SE 9.2 mph - N/A Rain Light Rain
5:55 AM 38.7 °F 31.8 °F 32.0 °F 77% 29.72 in 10.0 mi SE 10.4 mph 17.3 mph N/A Rain Light Rain
6:16 AM 39.2 °F 31.2 °F 32.2 °F 76% 29.71 in 10.0 mi SE 13.8 mph - N/A   Overcast
6:35 AM 39.6 °F 31.7 °F 32.9 °F 77% 29.70 in 10.0 mi SE 13.8 mph 18.4 mph N/A   Overcast
6:55 AM 39.6 °F 33.0 °F 32.9 °F 77% 29.69 in 10.0 mi SE 10.4 mph - N/A   Overcast
7:15 AM 39.6 °F 32.5 °F 33.3 °F 78% 29.68 in 10.0 mi SE 11.5 mph - N/A   Overcast
7:35 AM 39.4 °F 32.3 °F 33.8 °F 80% 29.67 in 10.0 mi SE 11.5 mph - N/A   Overcast
7:56 AM 39.9 °F 32.1 °F 33.8 °F 79% 29.67 in 10.0 mi SE 13.8 mph 19.6 mph N/A   Overcast
8:15 AM 40.1 °F 34.1 °F 33.6 °F 78% 29.67 in 10.0 mi SE 9.2 mph - N/A   Overcast
8:36 AM 40.5 °F 35.8 °F 34.3 °F 79% 29.66 in 10.0 mi SSE 6.9 mph - N/A Rain Light Rain
8:55 AM 39.6 °F 33.0 °F 34.7 °F 83% 29.65 in 10.0 mi SE 10.4 mph - N/A Rain Light Rain
9:15 AM 40.1 °F 33.2 °F 34.5 °F 80% 29.64 in 10.0 mi SE 11.5 mph - N/A   Overcast
9:35 AM 41.2 °F 34.5 °F 34.5 °F 77% 29.63 in 10.0 mi SE 11.5 mph - N/A   Overcast
9:55 AM 41.9 °F 35.9 °F 34.7 °F 76% 29.62 in 10.0 mi SSE 10.4 mph - N/A   Overcast
10:15 AM 43.2 °F 37.4 °F 34.7 °F 72% 29.62 in 10.0 mi SSE 10.4 mph 17.3 mph N/A   Overcast
10:35 AM 43.7 °F 40.3 °F 34.7 °F 71% 29.61 in 10.0 mi South 5.8 mph - N/A   Overcast
10:56 AM 44.1 °F 39.5 °F 34.9 °F 70% 29.60 in 10.0 mi SSE 8.1 mph - N/A   Overcast
11:15 AM 44.1 °F 40.8 °F 34.7 °F 70% 29.60 in 10.0 mi South 5.8 mph - N/A   Overcast
11:36 AM 43.9 °F 39.3 °F 34.5 °F 70% 29.60 in 10.0 mi SSE 8.1 mph - N/A   Overcast
11:56 AM 44.8 °F 41.0 °F 34.7 °F 68% 29.59 in 10.0 mi SSE 6.9 mph - N/A   Overcast
12:15 PM 45.0 °F 41.8 °F 34.7 °F 67% 29.59 in 10.0 mi SSE 5.8 mph - N/A   Overcast
12:36 PM 46.8 °F - 36.3 °F 67% 29.58 in 10.0 mi South 11.5 mph 16.1 mph N/A   Overcast
12:55 PM 46.4 °F 41.5 °F 36.5 °F 68% 29.59 in 10.0 mi SSW 10.4 mph - N/A   Overcast
1:15 PM 39.2 °F 31.2 °F 32.0 °F 75% 29.61 in 10.0 mi WSW 13.8 mph 18.4 mph N/A   Overcast
1:36 PM 37.4 °F 29.8 °F 31.3 °F 79% 29.63 in 10.0 mi West 11.5 mph 19.6 mph N/A   Overcast
1:55 PM 35.6 °F 27.5 °F 32.0 °F 87% 29.63 in 4.0 mi West 11.5 mph - N/A   Overcast
2:16 PM 36.3 °F 28.4 °F 31.1 °F 81% 29.63 in 10.0 mi WSW 11.5 mph - N/A   Overcast
2:35 PM 36.9 °F 26.8 °F 29.7 °F 75% 29.63 in 10.0 mi SW 18.4 mph 25.3 mph N/A   Overcast
2:56 PM 36.1 °F 25.9 °F 28.9 °F 75% 29.65 in 10.0 mi WSW 18.4 mph 26.5 mph N/A   Overcast
3:15 PM 34.9 °F 24.2 °F 28.4 °F 77% 29.65 in 10.0 mi WSW 18.4 mph 26.5 mph N/A   Overcast
3:35 PM 34.2 °F 24.0 °F 28.2 °F 79% 29.66 in 10.0 mi WSW 16.1 mph 24.2 mph N/A   Overcast
3:56 PM 33.8 °F 23.2 °F 27.9 °F 79% 29.67 in 7.0 mi SW 17.3 mph 24.2 mph N/A Snow Light Snow
4:15 PM 33.1 °F 24.4 °F 27.5 °F 80% 29.68 in 3.0 mi SW 11.5 mph 24.2 mph N/A Snow Light Snow
4:36 PM 32.5 °F 22.7 °F 28.2 °F 84% 29.70 in 2.0 mi WSW 13.8 mph 19.6 mph N/A Snow Light Snow
4:56 PM 32.0 °F 22.5 °F 27.9 °F 85% 29.70 in 1.5 mi WSW 12.7 mph 17.3 mph N/A Snow Light Snow
5:15 PM 31.8 °F 21.0 °F 27.1 °F 83% 29.70 in 2.5 mi WSW 16.1 mph 21.9 mph N/A Snow Light Snow
5:36 PM 32.0 °F 23.0 °F 25.7 °F 78% 29.71 in 4.0 mi WSW 11.5 mph 27.6 mph N/A Snow Light Snow
5:55 PM 32.0 °F 20.8 °F 25.7 °F 78% 29.72 in 10.0 mi WSW 17.3 mph 24.2 mph N/A   Overcast
6:15 PM 32.0 °F 19.2 °F 25.9 °F 78% 29.73 in 7.0 mi SW 23.0 mph 32.2 mph N/A   Overcast
6:36 PM 32.0 °F 20.8 °F 26.4 °F 80% 29.74 in 10.0 mi SW 17.3 mph 26.5 mph N/A   Overcast
6:55 PM 32.0 °F 19.5 °F 26.6 °F 80% 29.75 in 5.0 mi WSW 21.9 mph 27.6 mph N/A   Haze
7:15 PM 32.0 °F 20.8 °F 27.0 °F 82% 29.76 in 10.0 mi WSW 17.3 mph 28.8 mph N/A   Overcast
7:36 PM 31.6 °F 21.2 °F 27.5 °F 85% 29.77 in 3.0 mi WSW 15.0 mph 27.6 mph N/A   Overcast
7:55 PM 31.6 °F 22.1 °F 27.5 °F 85% 29.78 in 5.0 mi WSW 12.7 mph 25.3 mph N/A   Overcast
8:16 PM 31.6 °F 19.0 °F 26.4 °F 81% 29.79 in 5.0 mi WSW 21.9 mph 32.2 mph N/A   Haze
8:36 PM 31.5 °F 19.4 °F 25.9 °F 80% 29.80 in 10.0 mi WSW 19.6 mph 24.2 mph N/A   Overcast
8:55 PM 31.5 °F 19.8 °F 25.7 °F 79% 29.81 in 10.0 mi WSW 18.4 mph 26.5 mph N/A   Overcast
9:16 PM 31.5 °F 20.9 °F 25.7 °F 79% 29.82 in 10.0 mi WSW 15.0 mph 24.2 mph N/A   Overcast
9:35 PM 31.5 °F 19.4 °F 25.7 °F 79% 29.83 in 10.0 mi WSW 19.6 mph 27.6 mph N/A   Overcast
9:56 PM 30.9 °F 21.2 °F 26.1 °F 82% 29.84 in 5.0 mi WSW 12.7 mph 25.3 mph N/A   Haze
10:16 PM 30.2 °F 19.8 °F 28.0 °F 92% 29.87 in 2.5 mi West 13.8 mph 23.0 mph N/A   Overcast
10:35 PM 28.0 °F 16.1 °F 25.7 °F 91% 29.89 in 4.0 mi WNW 16.1 mph 21.9 mph N/A   Overcast
10:56 PM 27.5 °F 15.9 °F 25.5 °F 92% 29.90 in 3.0 mi WNW 15.0 mph 19.6 mph N/A   Overcast
11:15 PM 26.6 °F 14.3 °F 23.9 °F 90% 29.91 in 7.0 mi WNW 16.1 mph 20.7 mph N/A   Overcast
11:36 PM 26.6 °F 15.7 °F 22.8 °F 86% 29.91 in 10.0 mi West 12.7 mph 19.6 mph N/A   Overcast
11:55 PM 26.4 °F 16.6 °F 21.9 °F 83% 29.93 in 10.0 mi WNW 10.4 mph 17.3 mph N/A   Overcast